Explorer 7

operational
NORAD ID: 22 Int'l Des: 1959 IOT Owner: GSFC Country: US
LEOCIRCULAR

About Explorer 7

Description loading...

Live Position

Loading 3D Globe...

Upcoming Passes

Altitude History

Altitude vs Time

uPlot chart will show altitude changes over time

Two-Line Element Set

1 22U 59009A 26061.26492949 .00016364 00000-0 57433-3 0 9992
2 22 50.2392 267.9768 0081859 54.4280 306.4274 15.26357838784009
Epoch: Mar 2, 2026 • Age: 67 hours

Current Status

Altitude 553.4 km
Velocity 7.56 km/s
Sub-Earth Point -50.37°S, 76.74°E
Type other

Large Constellations

Loading constellations...